Hourly Weather Bolshie Mozhary

Today, 20 June, Sunday

Time Temperature Precipitation Wind Pressure Humidity
00:00 +19°C° 0 mm 1 mps 758 mmHg 84%
01:00 +19°C° 0 mm 1 mps 758 mmHg 85%
02:00 +16°C° 0 mm 0 mps 758 mmHg 86%
03:00 +16°C° 0 mm 0 mps 758 mmHg 87%
04:00 +17°C° 0 mm 0 mps 758 mmHg 86%
05:00 +18°C° 0 mm 0 mps 758 mmHg 84%
06:00 +19°C° 0 mm 0 mps 758 mmHg 82%
07:00 +20°C° 0 mm 0 mps 758 mmHg 77%
08:00 +22°C° 0 mm 0 mps 758 mmHg 73%
09:00 +25°C° 0 mm 1 mps 758 mmHg 68%
10:00 +26°C° 0 mm 1 mps 758 mmHg 65%
11:00 +27°C° 0 mm 1 mps 758 mmHg 61%
12:00 +28°C° 0 mm 1 mps 758 mmHg 57%
13:00 +28°C° 0 mm 1 mps 757 mmHg 56%
14:00 +29°C° 0 mm 1 mps 757 mmHg 54%
15:00 +29°C° 0 mm 1 mps 757 mmHg 52%
16:00 +29°C° 0 mm 1 mps 756 mmHg 56%
17:00 +29°C° 0 mm 1 mps 756 mmHg 59%
18:00 +29°C° 0 mm 1 mps 756 mmHg 63%
19:00 +27°C° 0 mm 1 mps 756 mmHg 68%
20:00 +25°C° 0 mm 1 mps 756 mmHg 73%
21:00 +21°C° 0 mm 0 mps 756 mmHg 78%
22:00 +22°C° 0 mm 1 mps 756 mmHg 79%
23:00 +21°C° 0 mm 1 mps 756 mmHg 81%

Tomorrow, 21 June, Monday

Time Temperature Precipitation Wind Pressure Humidity
00:00 +21°C° 0 mm 1 mps 756 mmHg 83%
01:00 +21°C° 0 mm 1 mps 756 mmHg 83%
02:00 +20°C° 0 mm 1 mps 756 mmHg 83%
03:00 +20°C° 0 mm 1 mps 756 mmHg 83%
04:00 +20°C° 0 mm 1 mps 756 mmHg 83%
05:00 +21°C° 0 mm 1 mps 756 mmHg 82%
06:00 +22°C° 0 mm 1 mps 757 mmHg 82%
07:00 +23°C° 0 mm 2 mps 757 mmHg 78%
08:00 +25°C° 0 mm 2 mps 757 mmHg 73%
09:00 +26°C° 0 mm 2 mps 757 mmHg 69%
10:00 +27°C° 0 mm 2 mps 757 mmHg 65%
11:00 +28°C° 0 mm 2 mps 757 mmHg 61%
12:00 +29°C° 0 mm 2 mps 757 mmHg 57%
13:00 +29°C° 0 mm 2 mps 756 mmHg 55%
14:00 +30°C° 0 mm 2 mps 756 mmHg 54%
15:00 +30°C° 0 mm 2 mps 756 mmHg 52%
16:00 +30°C° 0 mm 2 mps 756 mmHg 57%
17:00 +29°C° 0 mm 2 mps 756 mmHg 61%
18:00 +29°C° 0 mm 1 mps 755 mmHg 66%
19:00 +27°C° 0 mm 1 mps 756 mmHg 69%
20:00 +26°C° 0 mm 2 mps 756 mmHg 73%
21:00 +24°C° 0 mm 2 mps 756 mmHg 77%
22:00 +23°C° 0 mm 2 mps 756 mmHg 78%
23:00 +23°C° 0 mm 2 mps 756 mmHg 80%

Day after tomorrow, 22 June, Tuesday

Time Temperature Precipitation Wind Pressure Humidity
00:00 +21°C° 0 mm 2 mps 756 mmHg 81%
01:00 +20°C° 0 mm 2 mps 756 mmHg 83%
02:00 +21°C° 0 mm 1 mps 756 mmHg 85%
03:00 +20°C° 0 mm 1 mps 756 mmHg 88%
04:00 +21°C° 0 mm 1 mps 756 mmHg 86%
05:00 +21°C° 0 mm 2 mps 756 mmHg 85%
06:00 +23°C° 0 mm 2 mps 756 mmHg 84%
07:00 +24°C° 0 mm 2 mps 756 mmHg 78%
08:00 +26°C° 0 mm 2 mps 756 mmHg 72%
09:00 +28°C° 0 mm 2 mps 757 mmHg 66%
10:00 +29°C° 0 mm 2 mps 756 mmHg 62%
11:00 +30°C° 0 mm 2 mps 756 mmHg 57%
12:00 +31°C° 0 mm 2 mps 756 mmHg 52%
13:00 +31°C° 0 mm 2 mps 756 mmHg 50%
14:00 +31°C° 0 mm 1 mps 756 mmHg 48%
15:00 +32°C° 0 mm 1 mps 756 mmHg 46%
16:00 +32°C° 0 mm 1 mps 756 mmHg 50%
17:00 +31°C° 0 mm 1 mps 756 mmHg 54%
18:00 +31°C° 0 mm 1 mps 755 mmHg 59%
19:00 +29°C° 0 mm 1 mps 755 mmHg 63%
20:00 +27°C° 0 mm 1 mps 755 mmHg 67%
21:00 +25°C° 0 mm 1 mps 755 mmHg 71%
22:00 +24°C° 0 mm 1 mps 756 mmHg 73%
23:00 +24°C° 0 mm 1 mps 756 mmHg 75%

23 June, Wednesday

Time Temperature Precipitation Wind Pressure Humidity
00:00 +23°C° 0 mm 1 mps 756 mmHg 77%
01:00 +23°C° 0 mm 1 mps 756 mmHg 78%
02:00 +22°C° 0 mm 1 mps 756 mmHg 79%
03:00 +22°C° 0 mm 1 mps 756 mmHg 80%
04:00 +23°C° 0 mm 1 mps 756 mmHg 79%
05:00 +23°C° 0 mm 1 mps 756 mmHg 79%
06:00 +24°C° 0 mm 1 mps 756 mmHg 79%
07:00 +26°C° 0 mm 1 mps 756 mmHg 74%
08:00 +27°C° 0 mm 2 mps 756 mmHg 69%
09:00 +29°C° 0 mm 2 mps 756 mmHg 64%
10:00 +30°C° 0 mm 2 mps 756 mmHg 60%
11:00 +31°C° 0 mm 2 mps 756 mmHg 56%
12:00 +32°C° 0 mm 2 mps 756 mmHg 53%
13:00 +32°C° 0 mm 2 mps 756 mmHg 50%
14:00 +32°C° 0 mm 1 mps 756 mmHg 48%
15:00 +33°C° 0 mm 1 mps 755 mmHg 46%
16:00 +33°C° 0 mm 1 mps 755 mmHg 50%
17:00 +32°C° 0 mm 1 mps 755 mmHg 54%
18:00 +30°C° 0 mm 0 mps 755 mmHg 59%
19:00 +30°C° 0 mm 1 mps 755 mmHg 63%
20:00 +28°C° 0 mm 1 mps 755 mmHg 67%
21:00 +26°C° 0 mm 1 mps 755 mmHg 71%
22:00 +25°C° 0 mm 1 mps 755 mmHg 73%
23:00 +25°C° 0 mm 1 mps 755 mmHg 74%

24 June, Thursday

Time Temperature Precipitation Wind Pressure Humidity
00:00 +24°C° 0 mm 1 mps 755 mmHg 75%
01:00 +24°C° 0 mm 1 mps 755 mmHg 76%
02:00 +22°C° 0 mm 0 mps 755 mmHg 77%
03:00 +21°C° 0 mm 0 mps 755 mmHg 77%
04:00 +22°C° 0 mm 0 mps 755 mmHg 77%
05:00 +25°C° 0 mm 1 mps 755 mmHg 76%
06:00 +25°C° 0 mm 1 mps 755 mmHg 76%
07:00 +27°C° 0 mm 1 mps 755 mmHg 71%
08:00 +28°C° 0 mm 1 mps 755 mmHg 66%
09:00 +28°C° 0 mm 0 mps 756 mmHg 62%
10:00 +29°C° 0 mm 0 mps 755 mmHg 58%
11:00 +30°C° 0 mm 0 mps 755 mmHg 55%
12:00 +31°C° 0 mm 0 mps 755 mmHg 51%
13:00 +31°C° 0 mm 0 mps 755 mmHg 50%
14:00 +33°C° 0 mm 1 mps 755 mmHg 48%
15:00 +34°C° 0 mm 1 mps 755 mmHg 46%
16:00 +33°C° 0 mm 1 mps 755 mmHg 49%
17:00 +31°C° 0 mm 0 mps 755 mmHg 52%
18:00 +31°C° 0 mm 0 mps 755 mmHg 56%
19:00 +30°C° 0.1 mm 1 mps 755 mmHg 61%
20:00 +28°C° 0.1 mm 1 mps 755 mmHg 67%
21:00 +25°C° 0.1 mm 2 mps 754 mmHg 72%
22:00 +25°C° 0 mm 1 mps 754 mmHg 73%
23:00 +24°C° 0 mm 1 mps 755 mmHg 73%

25 June, Friday

Time Temperature Precipitation Wind Pressure Humidity
00:00 +24°C° 0 mm 1 mps 755 mmHg 74%
01:00 +23°C° 0 mm 1 mps 755 mmHg 76%
02:00 +23°C° 0 mm 1 mps 755 mmHg 78%
03:00 +23°C° 0 mm 1 mps 755 mmHg 80%
04:00 +24°C° 0 mm 1 mps 755 mmHg 79%
05:00 +23°C° 0 mm 0 mps 755 mmHg 79%
06:00 +24°C° 0 mm 0 mps 755 mmHg 78%
07:00 +25°C° 0 mm 0 mps 755 mmHg 73%
08:00 +27°C° 0 mm 0 mps 755 mmHg 68%
09:00 +28°C° 0 mm 0 mps 755 mmHg 63%
10:00 +31°C° 0 mm 1 mps 755 mmHg 59%
11:00 +32°C° 0 mm 1 mps 755 mmHg 56%
12:00 +33°C° 0 mm 1 mps 755 mmHg 52%
13:00 +33°C° 0 mm 1 mps 754 mmHg 50%
14:00 +34°C° 0 mm 1 mps 754 mmHg 49%
15:00 +35°C° 0 mm 2 mps 754 mmHg 48%
16:00 +33°C° 0.1 mm 1 mps 754 mmHg 52%
17:00 +32°C° 0.1 mm 1 mps 753 mmHg 57%
18:00 +32°C° 0.1 mm 1 mps 753 mmHg 62%
19:00 +29°C° 0.4 mm 1 mps 753 mmHg 68%
20:00 +27°C° 0.4 mm 2 mps 753 mmHg 74%
21:00 +24°C° 0.4 mm 2 mps 753 mmHg 80%
22:00 +23°C° 0.3 mm 2 mps 753 mmHg 81%
23:00 +21°C° 0.3 mm 2 mps 754 mmHg 82%
Show more